STARLINK-1266, 45383

Orbit data source: Space-Track

STARLINK-1266, 45383 is a payload satellite owned by SpaceX/Seattle (US) in LEO that was launched on Wed, 18 Mar 2020 UTC via an FALCON 9 launch vehicle from the Air Force Eastern Test Range (AFETR). Payload-class satellites include a variety of spacecraft equipped with specific instruments for various scientific and technological missions. These include communications satellites like Starlink; space stations such as the ISS; scientific satellites like the Hubble; Earth observation satellites from companies like Planet Labs, Umbra, and HawkEye 360; GPS; miniature CubeSats for education and research; and military/defense satellites.

Loading next visibility...
Identifier
45383, 2020-019Z
Orbit
LEO
Country
Flag of USUS
Related business
Manufacturer
SpaceX/Seattle
Mission
Partially operational Commercial Communications
Bus & Motor
STARLINK, Unknown motor
Mass
260 kg wet, ~248 kg dry
Launch date (UTC)
2020-03-18 (6 years ago)
Launch vehicle
FALCON 9
Launch site
Air Force Eastern Test Range (AFETR)
Object type
Payload
Rocket body
Debris
Shape & HBR
Box + 1 Pan, 10.1 m
Radar Cross Section
13.562 m², Large (>1 m²)

Expand to show TLE details & history
Last TLE update: 16 hours ago

TLE from 16 hours ago
0 STARLINK-1266
1 45383U 20019Z   26065.48947376  .00090969  00000-0  18919-2 0  9995
2 45383  53.0504 148.2083 0003654   1.5734 358.5282 15.44896911329708
Epoch: 2026-03-06T11:44Z
TLE epoch observation values (Epoch: 2026-03-06T11:44:50.532Z)
Latitude
-0.00009°
Longitude
167.77294°
Altitude
430.087 km
Speed
7.656 km/s
True Right ascension
09h 52m 49s
True Declination
0° 00' 00"
Sunlit
Object was in full shadow at epoch
Visualization orbit readout
Latitude
Unknown
Longitude
Unknown
Altitude
Unknown
Speed
Unknown
Apparent Right ascension
Unknown
Apparent Declination
Unknown
Sunlit
N/A
Visualization observer readout
Local Sidereal Time
07:34:52
Azimuth
Unknown
Elevation
Unknown
Doppler factor
Unknown
Orbital elements
Apogee altitude
434.445 km
Perigee altitude
429.468 km
Semi-major axis
6,810.094 km
Eccentricity
0.00037
Inclination
53.0504°
RAAN
148.2083°
Arg. of periapsis
1.5734°
True anomaly
358.52712°
Mean anomaly
358.5282°
Eccentric anomaly
358.52766°
Mean motion
3.86201 °/min
Orbital period
93.22 mins
BSTAR
0.0018919
Loading maneuver chart data...
Computing Atmospheric mass density...
Loading historical data...
Loading historical data...
Loading historical data...
Loading historical data...
Loading historical data...
Loading historical data...
Loading historical data...

Documentation

Showing up to 5 results
|